ENVISAT

Last updated on Fri Sep 19 2025 00:02:15 GMT+0000 (Coordinated Universal Time)

1 27386U 02009A 25261.32787668 .00000118 00000+0 52084-4 0 9992 2 27386 98.3437 214.3043 0001249 90.1345 69.2099 14.38949112234384
UTC large
Height (km)
Speed (km/s)
/
Latitude / Longitude
Inclination (degrees)
Orbital Period (minutes)
Azimuth
Elevation
Range (km)
Doppler Factor

Next 0 passes for location: London (51.5072 / 0.1276)

Sorry there are no passes over London.